Flag for Germany Weather past 2 weeks in Herford, North Rhine-Westphalia, Germany

Now
41 °F

Broken clouds.


Feels Like: 34 °F
Forecast: 34 / 46 °F
Wind: 13 mph from West

Location: Bueckeburg

Current Time: Mar 4, 2015 at 6:12:55 PM

Latest Report: Mar 4, 2015 at 5:20 PM


Visibility: N/A

Pressure: 30.18 "Hg

Humidity: 76%

Dew point: 34 °F

Location of HerfordLocation

Historic Weather in Herford — Graph

°F

Herford temperature yesterday

Maximum temperature yesterday: 45 °F (at 1:20 PM)
Minimum temperature yesterday: 36 °F (at 12:20 AM)
Average temperature yesterday: 38 °F

Past Weeks' High & Low Weather Summary

 TemperatureHumidityPressure
High50 °F (Mar 1, 1:20 PM)100% (Feb 17, 8:20 PM)30.74 "Hg (Feb 17, 8:20 PM)
Low30 °F (Feb 28, 4:20 AM)46% (Feb 28, 3:20 PM)29.30 "Hg (Feb 21, 6:20 AM)
Average40 °F78%29.89 "Hg
* Reported Feb 17 4:20 PM — Mar 4 4:20 PM, Herford, Weather by CustomWeather, © 2015

Note: Actual official high and low records may vary slightly from our data, if they occured in-between our weather recording intervals... More about our weather records

Advertising

Herford weather history for previous 24 hours

 ConditionsComfort  
Time TempWeatherWind HumidityBarometerVisibility
4:20 PM
Wed, Mar 4
43 °FBroken clouds.21 mph71%30.15 "HgN/A
3:50 PM41 °FSnow flurries. Broken clouds.13 mph76%30.18 "HgN/A
3:20 PM43 °FSprinkles. Broken clouds.15 mph71%30.15 "HgN/A
2:20 PM43 °FPartly sunny.17 mph71%30.15 "HgN/A
1:20 PM41 °FBroken clouds.14 mph76%30.15 "HgN/A
12:20 PM41 °FBroken clouds.14 mph76%30.15 "HgN/A
11:20 AM39 °FBroken clouds.16 mph81%30.12 "HgN/A
10:20 AM39 °FPartly sunny.16 mph81%30.12 "HgN/A
9:20 AM37 °FScattered clouds.17 mph87%30.09 "HgN/A
8:20 AM37 °FPartly sunny.17 mph81%30.09 "HgN/A
7:20 AM36 °FPartly sunny.16 mph87%30.09 "Hg6 mi
6:20 AM36 °FPassing clouds.15 mph87%30.07 "Hg6 mi
5:20 AM36 °FPassing clouds.14 mph87%30.07 "HgN/A
4:20 AM36 °FPassing clouds.10 mph81%30.04 "HgN/A
3:20 AM36 °FPassing clouds.10 mph81%30.04 "HgN/A
2:20 AM37 °FPartly cloudy.15 mph81%30.04 "HgN/A
1:20 AM37 °FPartly cloudy.12 mph87%30.01 "HgN/A
12:20 AM37 °FPassing clouds.10 mph81%30.01 "HgN/A
11:20 PM
Tue, Mar 3
37 °FPassing clouds.10 mph81%30.01 "HgN/A
10:20 PM36 °FPartly cloudy.8 mph93%29.98 "HgN/A
9:20 PM36 °FPartly cloudy.7 mph93%29.98 "HgN/A
8:20 PM36 °FPartly cloudy.10 mph93%29.95 "HgN/A
7:20 PM36 °FSprinkles. Fog.22 mph93%29.92 "Hg3 mi
6:55 PM36 °FThunderstorms. Fog.17 mph87%29.92 "Hg3 mi
6:20 PM41 °FLight rain. Passing clouds.10 mph87%29.89 "HgN/A
Weather by CustomWeather, © 2015

See weather overviewHow to use our weather pages